This is the latest recevied weather packets stored in our database for station/object WA2TQI. If no packets are shown the sender has not sent any weather packets the latest 10 day(s).
| Time | Temp. | Humidity | Pressure | Rain* | Wind** | Luminosity | Snow |
|---|---|---|---|---|---|---|---|
| 1778132532 | 13.89° C | 94% | 1011.3 hPa | 0 mm | - | - | - |
| 1778132230 | 13.89° C | 94% | 1010.5 hPa | 0 mm | - | - | - |
| 1778131927 | 13.89° C | 95% | 1010.4 hPa | 0 mm | - | - | - |
| 1778131626 | 13.89° C | 95% | 1011.3 hPa | 0 mm | - | - | - |
| 1778131321 | 13.89° C | 96% | 1010.9 hPa | 0 mm | - | - | - |
| 1778131020 | 14.44° C | 96% | 1010.9 hPa | 0 mm | - | - | - |
| 1778130716 | 14.44° C | 95% | 1010.9 hPa | 0 mm | - | - | - |
| 1778130413 | 14.44° C | 96% | 1010.7 hPa | 0 mm | - | - | - |
| 1778130110 | 14.44° C | 96% | 1010.5 hPa | 0 mm | - | - | - |
| 1778129806 | 14.44° C | 96% | 1010 hPa | 0 mm | - | - | - |
| 1778129503 | 14.44° C | 96% | 1010 hPa | 0 mm | - | - | - |
| 1778129200 | 14.44° C | 96% | 1010.1 hPa | 0 mm | - | - | - |
| 1778128897 | 14.44° C | 96% | 1010.2 hPa | 0 mm | - | - | - |
| 1778128593 | 14.44° C | 96% | 1010.5 hPa | 0 mm | - | - | - |
| 1778128290 | 14.44° C | 97% | 1010.5 hPa | 0 mm | - | - | - |
| 1778127987 | 14.44° C | 97% | 1010.3 hPa | 0 mm | - | - | - |
| 1778127681 | 15° C | 97% | 1010 hPa | 0 mm | - | - | - |
| 1778127379 | 15° C | 98% | 1010.4 hPa | 0 mm | - | - | - |
| 1778127075 | 15.56° C | 98% | 1010.4 hPa | 0 mm | - | - | - |
| 1778126773 | 17.22° C | 99% | 1010.3 hPa | 0 mm | - | - | - |
| 1778126469 | 17.22° C | 99% | 1010 hPa | 0 mm | - | - | - |
| 1778126165 | 17.78° C | 99% | 1009.9 hPa | 0 mm | - | - | - |
| 1778125861 | 17.78° C | 98% | 1009.9 hPa | 0 mm | - | - | - |
| 1778125558 | 17.78° C | 98% | 1010 hPa | 0 mm | - | - | - |
| 1778125256 | 18.33° C | 99% | 1010.1 hPa | 0 mm | - | - | - |
* Rain latest hour (hover to see other rain measurements)
** Current wind speed in m/s (hover to see current wind gust speed)